Location: 22
(39.7117°N, 89.5929°W)
Time: 09:14:13
(UTC-05:00)

S-56A Canister/Altair - Pass Details

Date: 15 February 2023
Orbit: 638 x 2493 km, 38.9° (Epoch: 25 March)

Event Time Altitude Azimuth Distance (km) Brightness Sun altitude
Rises 09:11:33 0° 268° (W) 3,301 10.4 22.9°
Reaches altitude 10° 09:14:12 10° 267° (W) 2,217 9.6 23.3°
Maximum altitude 09:19:05 83° 180° (S) 656 7.7 24.0°
Drops below altitude 10° 09:23:33 10° 93° (E) 2,034 10.6 24.6°
Sets 09:25:53 0° 93° (E) 3,002 11.3 24.9°
